This is the latest recevied weather packets stored in our database for station/object N0NPO. If no packets are shown the sender has not sent any weather packets the latest 10 day(s).
| Time | Temp. | Humidity | Pressure | Rain* | Wind** | Luminosity | Snow |
|---|---|---|---|---|---|---|---|
| 1777552769 | 1.67° C | 1% | 1025.5 hPa | 0 mm | - | 48 W/m² | - |
| 1777552465 | 1.67° C | 1% | 1025.7 hPa | 0 mm | - | 43 W/m² | - |
| 1777552161 | 1.67° C | 1% | 1025.6 hPa | 0 mm | - | 38 W/m² | - |
| 1777551858 | 1.11° C | 1% | 1025.5 hPa | 0 mm | - | 34 W/m² | - |
| 1777551556 | 0.56° C | 1% | 1025.7 hPa | 0 mm | - | 32 W/m² | - |
| 1777551253 | 0.56° C | 1% | 1025.3 hPa | 0 mm | - | 23 W/m² | - |
| 1777550950 | 0.56° C | 1% | 1025.4 hPa | 0 mm | - | 22 W/m² | - |
| 1777550647 | 0.56° C | 1% | 1025.5 hPa | 0 mm | - | 17 W/m² | - |
| 1777550342 | 1.11° C | 1% | 1025.3 hPa | 0 mm | - | 13 W/m² | - |
| 1777550038 | 0.56° C | 1% | 1025.3 hPa | 0 mm | - | 9 W/m² | - |
| 1777549736 | 0.56° C | 1% | 1025.4 hPa | 0 mm | - | 6 W/m² | - |
| 1777549436 | 0.56° C | 1% | 1025.3 hPa | 0 mm | - | 2 W/m² | - |
| 1777549133 | 1.11° C | 1% | 1025.3 hPa | 0 mm | - | 1 W/m² | - |
| 1777548829 | 1.11° C | 1% | 1025.2 hPa | 0 mm | - | 0 W/m² | - |
| 1777548527 | 0.56° C | 1% | 1025.5 hPa | 0 mm | - | 0 W/m² | - |
| 1777548223 | 1.11° C | 1% | 1025.3 hPa | 0 mm | - | 0 W/m² | - |
| 1777547919 | 1.11° C | 1% | 1025.1 hPa | 0 mm | - | 0 W/m² | - |
| 1777547616 | 1.11° C | 1% | 1025.1 hPa | 0 mm | - | 0 W/m² | - |
| 1777547313 | 1.11° C | 1% | 1025.3 hPa | 0 mm | - | 0 W/m² | - |
| 1777547010 | 1.11° C | 1% | 1025.1 hPa | 0 mm | - | 0 W/m² | - |
| 1777546707 | 1.11° C | 1% | 1025 hPa | 0 mm | - | 0 W/m² | - |
| 1777546404 | 1.11° C | 1% | 1025.1 hPa | 0 mm | - | 0 W/m² | - |
| 1777546101 | 0.56° C | 1% | 1025.1 hPa | 0 mm | - | 0 W/m² | - |
| 1777545796 | 1.11° C | 1% | 1025.1 hPa | 0 mm | - | 0 W/m² | - |
| 1777545494 | 1.11° C | 1% | 1024.9 hPa | 0 mm | - | 0 W/m² | - |
* Rain latest hour (hover to see other rain measurements)
** Current wind speed in m/s (hover to see current wind gust speed)